Precipitable_Water
0.53 0.75 0.69 0.69 0.61 0.69 0.72 0.66 0.52 0.39 0.39 0.56 0.68 0.74 0.72 0.72 0.62 0.52 1.01 1.05 1.02 0.92 1.00 0.97 1.00 1.11 1.18 1.20 1.25 1.21 1.18 1.20 1.21 1.27 1.27 1.27 1.29 1.29 1.31 1.41 1.51 1.49 1.45 1.34 1.20 1.15 1.12 1.14 1.09
0.46 0.66 0.58 0.51 0.51 0.63 0.74 0.87 0.64 0.48 0.42 0.43 0.54 0.67 0.53 0.58 0.78 0.91 0.87 1.02 0.94 0.99 1.01 0.98 1.01 1.08 1.16 1.18 1.18 1.17 1.14 1.12 1.15 1.18 1.17 1.21 1.26 1.14 1.06 1.19 1.37 1.38 1.24 1.01 1.00 1.02 1.01 1.02 0.94
0.44 0.57 0.41 0.41 0.40 0.44 0.63 0.83 0.84 0.53 0.45 0.49 0.55 0.59 0.52 0.55 0.71 0.78 0.97 1.01 1.04 1.07 1.04 1.03 1.02 1.06 1.07 1.11 1.11 1.11 1.08 1.05 1.04 1.08 1.13 1.15 1.13 1.05 1.00 1.10 1.19 1.14 1.01 1.00 1.02 0.96 0.92 0.85 0.82
0.51 0.49 0.40 0.31 0.34 0.69 0.76 0.82 0.80 0.62 0.53 0.57 0.57 0.44 0.61 0.81 0.78 0.88 1.02 1.05 1.12 1.10 1.04 1.07 1.04 1.04 1.05 1.04 1.02 1.02 1.03 0.98 0.97 1.00 1.04 1.04 1.04 1.08 1.01 0.95 0.92 0.88 0.95 0.94 0.93 0.91 0.90 0.92 0.93
0.41 0.36 0.29 0.27 0.31 0.56 0.74 0.85 0.78 0.61 0.57 0.57 0.59 0.55 0.63 0.82 0.90 0.97 1.02 1.11 1.16 1.09 1.05 1.08 1.11 1.07 1.04 1.03 1.02 1.02 1.02 0.99 0.98 1.00 1.01 0.99 0.95 1.00 0.98 0.84 0.75 0.77 0.87 0.88 0.86 0.84 0.87 0.91 0.90
0.27 0.30 0.25 0.22 0.29 0.41 0.77 0.95 0.83 0.69 0.62 0.65 0.66 0.61 0.71 0.86 0.85 1.00 1.07 1.15 1.24 1.10 1.10 1.09 1.14 1.14 1.08 1.04 1.03 1.02 1.01 0.99 0.93 0.93 0.97 0.99 0.97 0.93 0.96 0.88 0.78 0.81 0.82 0.83 0.90 0.89 0.86 0.83 0.82
0.21 0.25 0.23 0.23 0.26 0.35 0.66 0.86 0.74 0.68 0.71 0.67 0.79 0.64 0.79 0.82 0.91 1.02 1.14 1.20 1.23 1.14 1.12 1.15 1.16 1.17 1.14 1.07 1.02 1.00 0.99 0.96 0.92 0.87 0.87 0.91 0.93 0.92 0.87 0.88 0.79 0.77 0.84 0.85 0.88 0.86 0.80 0.75 0.72
0.26 0.25 0.23 0.24 0.23 0.29 0.52 0.78 0.81 0.74 0.78 0.84 0.89 0.65 0.64 0.91 1.06 1.11 1.16 1.29 1.30 1.24 1.15 1.19 1.18 1.18 1.16 1.13 1.08 1.02 0.97 0.94 0.92 0.89 0.83 0.92 0.98 0.92 0.98 0.86 0.79 0.76 0.73 0.76 0.80 0.80 0.73 0.67 0.60
0.34 0.25 0.21 0.21 0.21 0.26 0.55 0.84 0.97 0.96 0.79 0.84 0.85 0.82 0.92 1.00 1.08 1.14 1.16 1.26 1.25 1.23 1.27 1.30 1.25 1.25 1.26 1.15 1.10 1.05 1.00 1.00 1.01 0.94 0.90 1.16 1.14 1.13 1.12 0.96 0.78 0.76 0.72 0.69 0.66 0.60 0.59 0.56 0.55
0.37 0.26 0.22 0.23 0.21 0.23 0.54 0.74 0.94 0.86 0.80 0.91 0.95 1.07 1.13 0.92 0.89 0.88 0.93 0.96 1.04 1.16 1.27 1.36 1.41 1.47 1.48 1.38 1.19 1.35 1.21 1.24 1.25 1.24 1.07 1.28 1.11 1.11 1.09 0.89 0.75 0.72 0.70 0.68 0.75 0.68 0.69 0.70 0.81
0.40 0.32 0.28 0.26 0.28 0.29 0.73 0.80 0.98 0.88 0.76 0.85 0.90 1.01 1.07 0.88 0.87 0.80 0.79 0.85 0.90 1.03 1.18 1.28 1.28 1.38 1.36 1.51 1.29 1.43 1.37 1.31 1.21 1.15 1.26 1.23 1.13 1.19 1.12 1.08 1.10 1.05 1.04 1.10 1.08 1.02 1.09 1.09 1.04
0.37 0.39 0.36 0.32 0.34 0.28 0.52 0.75 0.90 0.88 0.87 0.96 1.06 1.12 0.97 0.81 0.80 0.82 0.80 0.89 0.99 1.08 1.18 1.23 1.24 1.25 1.30 1.54 1.31 1.51 1.34 1.26 1.38 1.35 1.19 1.24 1.36 1.31 1.17 1.21 1.22 1.25 1.25 1.22 1.15 1.19 1.19 1.20 1.15
0.38 0.41 0.41 0.35 0.34 0.31 0.36 0.83 0.87 0.91 1.03 1.02 1.00 0.98 0.88 0.82 0.84 0.89 0.94 0.96 1.03 1.02 1.10 1.18 1.20 1.16 1.15 1.22 1.23 1.38 1.35 1.38 1.42 1.32 1.15 1.23 1.32 1.30 1.26 1.51 1.30 1.58 1.37 1.42 1.45 1.44 1.47 1.41 1.40
0.40 0.43 0.42 0.41 0.34 0.35 0.33 0.71 0.85 0.94 1.01 0.93 0.90 0.89 0.90 0.88 0.88 0.90 0.94 0.97 1.05 1.04 1.07 1.11 1.27 1.16 1.21 1.27 1.36 1.39 1.46 1.41 1.39 1.37 1.36 1.31 1.28 1.29 1.29 1.29 1.39 1.37 1.37 1.38 1.39 1.38 1.41 1.42 1.43
0.33 0.35 0.39 0.40 0.37 0.35 0.55 0.70 0.67 0.89 0.97 0.86 0.84 0.86 0.91 0.90 0.91 0.94 1.01 1.06 1.10 1.13 1.18 1.21 1.30 1.27 1.37 1.33 1.39 1.40 1.42 1.40 1.36 1.37 1.36 1.38 1.42 1.47 1.48 1.49 1.48 1.48 1.55 1.52 1.46 1.43 1.39 1.35 1.42
0.28 0.29 0.27 0.34 0.37 0.43 0.55 0.47 0.69 0.82 0.80 0.84 0.87 0.87 0.91 0.94 0.99 1.03 1.13 1.17 1.22 1.23 1.27 1.35 1.34 1.34 1.29 1.28 1.30 1.32 1.37 1.36 1.38 1.42 1.46 1.46 1.48 1.53 1.54 1.50 1.43 1.41 1.37 1.28 1.20 1.10 1.04 1.04 1.01
0.22 0.21 0.25 0.31 0.42 0.48 0.55 0.44 0.59 0.75 0.71 0.75 0.87 0.94 0.98 1.00 1.07 1.11 1.15 1.23 1.28 1.31 1.33 1.34 1.35 1.30 1.24 1.26 1.25 1.25 1.23 1.27 1.39 1.42 1.41 1.42 1.47 1.47 1.46 1.36 1.29 1.23 1.09 0.95 0.70 0.58 0.57 0.51 0.51
0.11 0.18 0.24 0.30 0.39 0.42 0.50 0.54 0.68 0.76 0.77 0.78 0.85 0.95 1.01 1.02 1.04 1.06 1.15 1.20 1.20 1.24 1.27 1.25 1.27 1.26 1.26 1.22 1.21 1.17 1.18 1.32 1.35 1.35 1.32 1.34 1.35 1.33 1.32 1.18 1.01 0.84 0.69 0.49 0.39 0.35 0.35 0.37 0.33
0.13 0.15 0.18 0.23 0.39 0.40 0.41 0.48 0.64 0.75 0.74 0.79 0.84 0.89 0.96 0.99 1.06 1.10 1.12 1.16 1.09 1.13 1.11 1.15 1.20 1.22 1.19 1.14 1.10 1.14 1.22 1.28 1.29 1.23 1.21 1.19 1.20 1.10 1.04 0.93 0.66 0.54 0.39 0.33 0.31 0.30 0.29 0.35 0.32
0.13 0.13 0.14 0.20 0.29 0.42 0.48 0.47 0.63 0.69 0.72 0.78 0.81 0.83 0.90 0.95 0.95 0.99 1.05 1.12 1.05 1.04 1.07 1.06 1.05 1.06 1.07 1.04 1.13 1.01 1.12 1.08 1.02 1.06 1.03 1.01 1.03 0.95 0.75 0.63 0.44 0.36 0.35 0.33 0.32 0.33 0.31 0.37 0.35
0.15 0.14 0.13 0.15 0.25 0.40 0.44 0.44 0.55 0.68 0.72 0.83 0.85 0.88 0.91 0.88 0.80 0.86 0.98 1.06 1.00 0.96 0.93 0.88 0.90 0.93 0.94 0.91 0.97 0.95 1.01 0.89 0.89 0.86 0.90 0.86 0.76 0.64 0.50 0.42 0.37 0.36 0.37 0.36 0.35 0.36 0.33 0.32 0.36
0.12 0.16 0.17 0.15 0.20 0.32 0.47 0.35 0.50 0.60 0.59 0.66 0.76 0.81 0.84 0.84 0.76 0.78 0.87 0.95 0.96 0.88 0.84 0.82 0.85 0.86 0.93 0.91 0.85 0.87 0.80 0.71 0.73 0.84 0.75 0.66 0.52 0.42 0.38 0.36 0.37 0.39 0.38 0.37 0.37 0.39 0.37 0.34 0.29
0.12 0.17 0.18 0.18 0.17 0.23 0.36 0.36 0.37 0.53 0.51 0.52 0.69 0.75 0.79 0.78 0.72 0.69 0.76 0.81 0.88 0.85 0.77 0.78 0.81 0.82 0.80 0.77 0.82 0.79 0.70 0.67 0.66 0.58 0.48 0.41 0.39 0.36 0.36 0.37 0.39 0.39 0.40 0.40 0.40 0.37 0.36 0.35 0.31
0.13 0.13 0.14 0.17 0.17 0.16 0.21 0.32 0.32 0.39 0.44 0.51 0.59 0.70 0.74 0.75 0.70 0.67 0.68 0.69 0.67 0.69 0.73 0.74 0.71 0.66 0.69 0.72 0.73 0.64 0.56 0.49 0.43 0.41 0.38 0.36 0.35 0.35 0.37 0.38 0.38 0.39 0.40 0.41 0.37 0.36 0.34 0.34 0.32
0.13 0.12 0.09 0.11 0.13 0.13 0.17 0.20 0.29 0.35 0.42 0.52 0.50 0.58 0.65 0.71 0.67 0.61 0.61 0.59 0.57 0.59 0.62 0.63 0.60 0.56 0.58 0.58 0.56 0.51 0.46 0.45 0.42 0.38 0.35 0.33 0.34 0.33 0.36 0.37 0.37 0.36 0.38 0.38 0.35 0.34 0.33 0.34 0.30
0.13 0.12 0.10 0.08 0.09 0.11 0.16 0.13 0.15 0.33 0.42 0.54 0.62 0.64 0.67 0.65 0.66 0.62 0.57 0.55 0.55 0.57 0.58 0.57 0.55 0.52 0.51 0.50 0.47 0.46 0.44 0.40 0.37 0.36 0.34 0.34 0.33 0.34 0.37 0.37 0.35 0.34 0.35 0.35 0.34 0.33 0.33 0.31 0.30
0.12 0.12 0.14 0.13 0.13 0.13 0.13 0.16 0.17 0.20 0.32 0.39 0.55 0.61 0.58 0.62 0.63 0.60 0.61 0.57 0.55 0.58 0.60 0.57 0.54 0.52 0.50 0.48 0.45 0.43 0.42 0.36 0.34 0.35 0.35 0.34 0.34 0.36 0.37 0.35 0.32 0.33 0.33 0.35 0.33 0.30 0.30 0.30 0.30
0.18 0.18 0.13 0.14 0.10 0.10 0.11 0.13 0.15 0.19 0.20 0.27 0.35 0.52 0.58 0.59 0.59 0.61 0.60 0.62 0.61 0.61 0.63 0.60 0.57 0.54 0.51 0.47 0.45 0.42 0.38 0.37 0.36 0.34 0.33 0.32 0.34 0.35 0.35 0.33 0.32 0.31 0.32 0.31 0.30 0.30 0.32 0.30 0.30
0.19 0.16 0.17 0.16 0.17 0.13 0.10 0.11 0.16 0.20 0.25 0.30 0.33 0.50 0.55 0.60 0.59 0.57 0.56 0.59 0.62 0.69 0.70 0.64 0.58 0.54 0.52 0.49 0.44 0.40 0.38 0.38 0.38 0.36 0.34 0.33 0.34 0.35 0.33 0.30 0.30 0.30 0.30 0.31 0.30 0.31 0.31 0.30 0.29
0.25 0.21 0.20 0.15 0.12 0.15 0.17 0.13 0.19 0.23 0.31 0.35 0.38 0.58 0.65 0.66 0.65 0.62 0.57 0.56 0.58 0.61 0.62 0.60 0.55 0.52 0.50 0.45 0.38 0.36 0.35 0.36 0.36 0.35 0.34 0.34 0.32 0.33 0.31 0.30 0.30 0.30 0.29 0.30 0.29 0.29 0.30 0.28 0.27
Wind_Speed
10 8 6 7 6 7 6 6 5 8 7 7 7 8 9 6 5 9 13 12 12 12 12 12 12 13 14 15 14 13 13 12 12 11 11 12 13 13 13 14 13 13 13 13 14 13 12 12 11
11 11 10 8 9 3 4 5 2 7 9 9 10 12 11 12 12 13 12 12 13 13 12 12 13 13 14 15 15 14 13 13 12 12 12 12 12 12 12 12 12 12 12 12 13 12 12 12 11
13 13 11 10 12 12 5 9 3 9 10 10 11 9 8 12 11 12 14 14 14 13 13 13 13 13 13 14 14 14 14 13 13 13 12 12 12 12 12 12 12 12 12 12 12 11 11 10 9
14 13 13 13 14 1 7 7 9 11 10 11 12 11 13 11 13 15 15 14 14 13 13 13 13 13 13 13 13 13 14 14 14 14 13 13 12 12 12 12 12 11 11 11 10 10 9 8 7
17 15 17 17 17 8 5 10 16 11 10 11 11 11 9 11 14 15 14 14 14 13 13 12 12 12 12 12 12 12 13 13 14 14 13 13 12 12 12 11 11 10 10 10 9 8 7 6 5
17 18 19 17 18 12 8 10 16 10 11 13 11 14 10 12 14 14 13 13 12 12 12 12 11 11 10 10 10 10 11 11 12 13 13 13 12 12 11 11 10 10 9 8 7 6 5 4 4
18 18 22 20 19 12 13 16 12 11 11 12 14 9 10 12 13 13 13 12 11 12 12 11 10 10 9 9 9 9 9 9 10 10 11 11 11 11 10 9 9 8 7 7 6 5 4 3 2
19 19 23 22 20 17 16 14 10 14 12 13 13 8 14 13 13 12 12 11 11 11 10 10 9 9 8 8 7 7 7 7 8 8 8 9 9 9 8 8 7 6 5 4 3 2 1 1 1
21 20 21 22 21 19 14 12 13 13 14 10 11 12 15 15 14 12 12 10 10 10 9 9 8 7 7 6 6 6 6 6 6 6 6 5 5 5 5 5 4 3 2 1 1 1 2 3 5
23 22 23 21 19 20 20 23 14 15 14 12 8 12 15 16 15 14 12 11 11 10 9 8 7 7 6 5 4 4 4 3 3 4 4 3 3 3 2 3 2 2 2 2 3 4 5 6 7
25 25 22 21 15 13 15 17 16 16 17 17 16 16 16 17 16 15 13 12 12 11 10 9 7 7 5 4 2 2 2 1 1 0 1 2 2 2 2 3 3 4 4 4 5 7 7 8 9
27 26 25 25 18 17 16 19 16 19 19 19 18 19 18 18 17 16 15 13 13 12 11 10 9 7 6 5 3 4 2 1 2 0 2 3 4 4 4 4 5 6 6 7 8 9 9 11 12
29 26 27 26 22 22 22 17 17 14 18 20 19 21 20 19 18 16 15 15 13 12 11 10 10 9 8 6 6 4 3 3 2 4 5 5 5 6 6 6 8 7 8 9 10 10 12 12 14
28 28 26 26 23 25 26 22 21 18 19 21 21 22 22 20 19 17 16 15 14 13 12 11 10 9 9 8 7 6 6 5 5 6 6 7 8 8 9 10 10 11 11 13 13 14 15 16 17
28 28 25 29 25 26 24 23 24 24 23 23 23 23 23 22 20 18 17 16 15 13 12 12 10 10 10 9 8 7 7 6 6 6 7 8 9 10 11 11 11 11 13 13 15 16 17 18 19
29 30 29 27 26 26 26 29 26 26 26 26 26 25 24 23 22 22 19 18 17 16 14 13 13 12 11 11 10 10 9 9 8 8 9 10 11 12 12 11 12 13 14 15 16 18 18 19 19
31 30 32 31 28 26 28 27 28 28 28 28 28 28 26 25 24 22 22 21 19 18 17 16 15 14 14 13 12 12 12 12 12 11 12 13 14 13 13 14 14 15 15 16 17 17 16 17 17
34 31 33 31 32 31 30 28 25 29 29 29 29 28 28 28 26 25 25 23 20 19 19 19 18 16 16 15 15 15 14 14 14 14 15 15 15 14 15 14 15 15 16 15 15 14 14 15 17
31 34 33 31 31 33 33 30 29 30 30 30 31 30 30 28 27 26 25 24 21 21 20 19 19 19 18 17 17 16 16 15 15 15 15 14 14 14 13 14 15 15 14 13 13 14 14 14 16
33 34 35 32 31 31 32 31 30 32 32 31 32 32 32 31 29 28 27 26 24 23 22 21 20 19 18 17 17 17 16 16 15 16 15 14 13 13 14 15 14 13 12 12 12 13 13 13 15
32 33 34 34 26 20 30 31 28 31 31 32 33 33 33 33 31 30 30 28 25 24 23 22 22 21 20 19 18 18 17 16 16 15 15 15 14 15 14 13 12 11 11 12 12 13 13 14 14
30 30 31 33 33 23 30 25 29 30 31 34 35 34 33 33 32 31 31 29 27 25 24 23 23 22 22 21 20 19 18 17 16 16 15 15 15 14 13 11 11 11 11 12 12 13 13 13 14
29 28 30 32 35 29 29 28 31 37 34 36 35 35 34 34 33 32 31 30 29 26 26 24 24 22 22 21 20 20 17 17 17 16 16 15 14 12 11 11 10 11 11 11 12 13 13 14 15
25 26 30 32 30 34 37 30 32 34 37 35 35 37 35 34 33 32 31 31 29 28 27 25 24 23 22 21 21 20 19 18 18 17 16 15 13 12 11 11 10 11 11 12 12 13 14 14 16
24 24 24 26 31 33 39 39 35 36 35 35 35 36 38 38 35 33 33 32 31 29 27 27 25 24 23 22 21 20 19 19 18 17 16 14 13 12 11 11 11 11 11 11 12 13 14 15 16
26 26 25 26 29 33 38 42 44 38 33 33 34 34 36 37 37 37 36 34 32 30 28 27 26 25 23 22 21 21 20 20 18 17 16 14 13 12 11 11 10 10 11 12 12 13 14 15 16
31 30 29 29 30 27 32 37 42 39 40 41 34 37 38 35 34 37 37 36 34 31 30 28 27 25 24 23 23 22 21 20 19 18 16 15 14 13 12 11 11 10 11 12 12 14 15 16 17
29 27 26 27 31 32 34 36 32 33 38 39 36 41 42 39 37 34 33 35 35 32 31 29 28 26 25 24 24 23 22 20 19 18 16 15 14 13 12 11 11 11 12 12 13 14 15 16 17
25 28 30 29 27 28 31 33 36 33 29 33 36 37 41 41 37 34 35 33 33 36 35 33 31 29 27 25 24 23 22 21 20 19 17 16 15 13 12 12 11 12 12 13 13 14 15 15 17
31 31 29 27 34 31 28 34 31 29 23 19 29 32 36 39 36 33 34 35 35 32 32 32 30 28 26 25 24 23 22 22 20 19 18 17 15 14 13 12 12 12 12 13 13 13 14 15 17
Wind_Direction
256 248 246 244 236 224 229 246 118 126 104 96 90 91 98 85 80 122 126 122 121 116 111 105 98 92 90 91 93 92 90 88 88 91 92 91 91 94 95 101 109 106 107 106 109 112 110 111 109
250 246 246 241 238 195 248 282 303 108 112 110 115 90 86 98 111 126 125 126 126 122 113 108 104 98 95 93 91 90 87 84 85 90 90 92 92 91 94 97 107 107 108 110 110 110 107 108 108
243 240 240 232 242 254 232 249 253 131 132 124 103 89 97 115 126 128 130 127 126 123 117 111 107 103 99 96 92 87 83 82 83 87 90 91 91 89 92 96 105 107 109 109 111 111 109 106 106
235 236 237 237 254 178 244 234 222 151 135 129 117 97 100 107 118 128 130 127 127 124 121 116 110 106 102 99 94 88 84 81 81 83 87 91 91 89 93 95 100 106 110 112 112 112 111 107 102
235 237 238 245 252 241 228 191 197 157 142 142 132 127 116 115 127 130 129 127 126 125 124 121 116 110 106 102 97 92 87 83 81 81 83 86 88 88 91 93 98 103 108 111 112 112 110 104 98
235 235 242 243 247 252 202 205 206 163 160 141 134 129 121 132 136 135 134 130 129 130 127 124 120 115 110 105 100 95 90 85 82 81 81 83 85 86 88 91 96 100 106 111 112 111 107 101 93
235 240 240 244 245 244 218 200 180 182 176 169 163 153 153 150 147 144 139 134 134 134 131 127 123 119 113 108 103 98 92 87 84 81 81 81 82 84 86 88 91 96 100 104 105 108 105 99 88
234 241 250 246 241 257 226 216 209 195 183 168 171 189 171 161 156 149 152 138 135 139 138 137 130 124 118 112 106 101 96 91 87 83 81 81 80 81 79 83 82 87 92 98 100 97 86 38 339
238 241 240 242 240 249 221 241 186 171 174 183 208 181 173 172 171 163 160 153 154 152 149 148 145 138 128 118 109 104 99 94 90 85 84 74 74 71 80 69 69 73 73 66 28 327 305 302 299
231 238 237 239 248 254 231 214 173 190 190 192 174 166 177 181 182 181 180 180 176 172 169 168 160 156 148 135 122 115 106 95 93 84 74 45 60 62 64 41 31 13 342 309 306 302 300 296 297
232 235 239 236 263 241 216 216 215 205 212 205 195 191 188 188 190 191 193 194 193 191 190 186 184 183 187 173 169 168 135 103 82 65 27 20 9 355 326 326 324 322 305 301 298 295 299 295 297
239 237 238 238 250 236 234 229 222 218 221 207 203 200 196 195 199 199 199 198 196 196 196 199 200 204 203 198 204 182 213 274 284 67 318 324 317 306 314 307 296 303 298 302 299 300 293 293 298
238 238 239 239 242 237 236 219 223 213 204 204 202 202 201 201 203 203 202 201 200 203 204 207 210 214 216 219 226 227 225 253 273 301 301 298 305 294 300 302 299 303 296 301 303 301 297 300 296
240 243 240 242 240 237 235 220 219 222 215 207 206 206 208 208 207 205 204 204 205 207 208 210 214 221 219 232 228 234 243 262 278 293 294 297 298 294 295 295 293 293 295 295 295 295 295 293 295
241 246 239 240 233 232 226 222 224 220 222 215 213 214 212 212 208 210 211 212 211 211 210 215 221 222 226 229 235 240 248 260 274 292 295 296 297 297 295 296 293 295 295 298 297 297 296 296 295
239 239 239 233 232 227 224 229 225 221 222 223 221 215 214 214 215 217 217 216 215 217 218 224 229 231 235 236 242 245 254 261 269 284 293 298 296 294 292 295 295 296 297 300 298 298 297 297 298
235 238 233 238 227 227 226 235 227 219 220 222 219 218 217 216 216 218 220 221 220 223 228 231 234 237 238 241 245 251 256 263 265 276 288 295 294 290 289 292 295 296 298 300 302 301 302 303 304
233 234 239 237 234 225 225 232 218 220 221 221 218 217 219 219 220 221 222 223 225 229 234 236 237 240 241 244 249 254 257 260 266 275 284 292 292 290 287 291 295 297 299 302 304 306 308 310 312
242 240 239 237 237 223 228 231 222 223 222 221 220 220 220 221 223 222 224 225 229 232 235 235 237 240 243 246 251 255 258 260 268 275 282 288 291 292 289 291 293 297 298 302 306 308 310 315 319
238 243 243 245 238 224 229 234 221 224 224 224 222 222 221 221 222 224 226 229 232 233 233 235 238 239 242 248 250 255 253 262 266 273 279 284 287 290 291 292 293 294 297 303 308 312 311 316 323
242 239 239 242 241 238 226 230 221 221 223 225 226 225 224 223 224 226 228 230 230 232 233 235 238 241 246 249 250 253 257 260 264 270 275 280 284 288 292 291 289 292 296 302 308 312 315 314 320
246 242 245 243 239 228 229 232 219 221 228 227 226 226 225 223 225 226 227 229 231 231 234 237 240 243 246 247 249 250 254 258 263 268 272 278 282 285 286 285 286 290 296 303 307 311 314 315 317
247 249 248 247 244 238 231 234 233 225 228 226 225 226 226 226 226 227 228 229 230 231 233 237 239 242 243 245 248 251 254 257 262 265 270 273 276 278 280 281 284 289 296 302 307 311 314 315 314
248 248 247 247 245 239 236 232 236 229 226 226 228 228 228 226 226 227 228 228 229 232 235 237 239 241 243 245 248 251 252 255 259 260 264 265 268 271 276 277 282 289 294 300 306 309 313 315 316
248 242 243 243 238 240 237 238 235 234 229 230 231 229 228 227 227 227 227 227 229 231 234 236 238 240 243 245 248 249 252 254 256 257 256 256 258 266 273 274 280 287 294 301 306 308 313 315 318
243 240 239 241 239 242 241 239 240 236 243 235 233 227 226 226 227 228 227 229 229 231 233 236 237 239 241 244 246 248 250 251 251 252 251 252 255 260 266 272 278 287 295 300 306 309 312 315 319
241 244 246 244 252 252 247 245 244 241 237 243 234 227 224 224 226 228 230 230 229 229 231 233 235 238 240 243 244 245 248 248 246 246 247 249 251 256 263 268 276 286 295 301 305 309 313 316 319
239 245 243 238 243 248 248 246 246 237 237 240 241 228 225 225 226 226 228 228 227 228 231 232 233 236 240 241 243 244 244 243 241 242 242 244 248 252 259 266 274 285 295 300 304 308 313 317 321
244 244 243 250 248 244 251 247 243 247 248 242 238 221 223 225 227 229 230 228 226 230 232 233 234 237 239 240 240 238 239 239 238 238 239 241 244 249 256 264 274 284 292 299 303 308 313 318 322
252 250 245 241 247 249 254 251 247 243 246 262 244 214 221 224 227 228 224 222 224 227 226 227 230 233 234 235 236 237 234 233 233 233 235 237 243 247 254 263 273 283 290 297 302 308 314 319 323